FENGYUN 2G

Last updated on Tue Sep 22 2026 00:02:53 GMT+0000 (Coordinated Universal Time)

1 40367U 14090A 26264.50883076 -.00000303 00000+0 00000+0 0 9996 2 40367 5.8759 71.6026 0003669 185.4810 26.2688 1.00271501 42969
UTC large
Height (km)
Speed (km/s)
/
Latitude / Longitude
Inclination (degrees)
Orbital Period (minutes)
Azimuth
Elevation
Range (km)
Doppler Factor

Next 0 passes for location: London (51.5072 / 0.1276)

No passes found over London.
FENGYUN 2G